Tracking 30922 objects as of 2-Jul-2025
HD Live streaming from Space Station
objects crossing your sky now

STARLINK-5325

Track STARLINK-5325 now!
10-day predictions
STARLINK-5325 is classified as:


NORAD ID: 55292
Int'l Code: 2023-010Z
Perigee: 577.0 km
Apogee: 581.3 km
Inclination: 70.0 °
Period: 96.1 minutes
Semi major axis: 6950 km
RCS: Unknown
Launch date: January 19, 2023
Source: United States (US)
Launch site: AIR FORCE WESTERN TEST RANGE (AFWTR)
Your satellite tracking list
Your tracking list is empty




NASA's NSSDC Master Catalog

Two Line Element Set (TLE):
1 55292U 23010Z   25182.76218279  .00000039  00000-0  11037-4 0  9997
2 55292  70.0003 297.0926 0003105 268.8167  91.2637 14.98332514135688
Source of the keplerian elements: AFSPC